Location: Bartshausen
(51.8454°N, 9.8167°E)
Time: 00:02:38
(UTC+00:00)

Cosmos 1954 Rocket - Pass Details

Date: 08 November 2025
Orbit: 748 x 776 km, 74.0° (Epoch: 04 December)

Event Time Altitude Azimuth Distance (km) Brightness Sun altitude
Exits shadow 04:48:57 - 336° (NNW) 2,919 6.7 -15.4°
Reaches altitude 10° 04:50:32 10° 338° (NNW) 2,306 6.2 -15.1°
Maximum altitude 04:55:45 71° 63° (ENE) 802 4.2 -14.3°
Drops below altitude 10° 05:00:54 10° 148° (SSE) 2,274 7.1 -13.6°
Sets 05:03:15 0° 150° (SSE) 3,191 7.8 -13.2°
